Погода в Вторых Тербунах

Россия / Липецкая область     52°06′54″N   38°28′58″E
темп.,
°C
ветер,
м/с
пор.,
м/с
влажн.,
%
обл.,
%
осадки,
мм/ч
давл.,
гПа
погр.,
м
1 августа, вс
вс100:00+21зюз22565 0.0 101117
03:00+20зюз22625 0.0 101215
06:00+20зюз11656 0.0 101316
09:00+27ююз23445 0.0 1013541
12:00+31зюз343310 0.0 10122456
15:00+32зюз55293 0.0 10112796
18:00+31зюз353231 0.0 10101756
21:00+25ю234312 0.0 101120
2 августа, пн
пн200:00+23ююз224992 0.0 101115
03:00+23ю36518 0.0 1011108
06:00+22ю37596 0.0 1011129
09:00+29ююз56401 0.0 1011613
12:00+33юз46295 0.0 10102893
15:00+34юз782494 0.0 10083452
18:00+33ююз462816 0.0 10061400
21:00+28ююз3837100 0.0 1006238
3 августа, вт
вт300:00+19з51486100 1.3 1009514
03:00+19зюз51288100 1.4 1008503
06:00+19ююз513876 0.3 1009494
09:00+23зюз687139 0.3 1009889
12:00+25з565929 0.0 10101199
15:00+26зсз7745100 0.0 10101663
18:00+24зсз674871 0.0 10111440
21:00+19сз36610 0.0 1013105
4 августа, ср
ср400:00+17сз37760 0.0 1014136
03:00+15сз35870 0.0 101591
06:00+15зсз25810 0.0 1016118
09:00+22зсз45490 0.0 1017804
12:00+25сз56318 0.0 10172495
15:00+26зсз66299 0.0 10172814
18:00+24зсз5538100 0.0 10171385
21:00+19зсз365128 0.0 1018133
5 августа, чт
чт500:00+16сз22600 0.0 101924
03:00+14сз22640 0.0 101915
06:00+15ссз22654 0.0 101939
09:00+22сз224244 0.0 1019590
12:00+26зюз1131100 0.0 10181726
15:00+27з22265 0.0 10172036
18:00+26зсз22295 0.0 10161345
21:00+20св01436 0.0 101611